contact:dominique.lefevre@mio.osupytheas.fr, maurice.libes@osupytheas.fr, didier.mallarino@osupytheas.fr
Project:EMSO http://www.emso-fr.org/EMSO-France
Depth: 2436.0 m
Title:EMSO Ligure Ouest : Data MII capteur AQUADOPP
Date,Latitude,Longitude,X_East,Y_North,Z_Up,Amplitude_X,Amplitude_Y,Amplitude_Z,Batterie,SoundSpeed,Heading,Pitch,Roll,Pressure,TIS,Speed,Direction
, degrees North, degrees East, m.s-1, m.s-1,m.s-1, 1, 1, 1, Volt, m.s-1, degree, degree, degree, dbar, degree_C, m.s-1, degree
2021-02-11T00:04:03,42.805,6.029,-0.042,-0.023,-0.05,110.0,112.0,106.0,13.4,1505.3,325.9,-0.7,1.9,2470.466,13.31,0.047,241.3
2021-02-11T00:07:03,42.805,6.029,-0.022,0.0,-0.009,111.0,112.0,106.0,13.3,1505.3,325.4,-0.7,1.9,2470.435,13.32,0.022,270.0
2021-02-11T00:10:03,42.805,6.029,0.002,-0.037,-0.001,110.0,111.0,105.0,13.4,1505.3,326.9,-0.7,1.8,2470.435,13.32,0.037,176.9
2021-02-11T00:13:03,42.805,6.029,-0.005,-0.026,0.0,110.0,110.0,106.0,13.4,1505.3,326.5,-0.7,1.8,2470.467,13.32,0.026,190.9
2021-02-11T00:16:03,42.805,6.029,-0.044,-0.032,-0.022,109.0,111.0,106.0,13.4,1505.3,326.5,-0.7,1.8,2470.453,13.33,0.054,234.0
2021-02-11T00:19:03,42.805,6.029,-0.035,-0.017,-0.006,109.0,111.0,106.0,13.4,1505.3,325.6,-0.7,1.8,2470.459,13.33,0.038,244.1
2021-02-11T00:22:03,42.805,6.029,-0.01,-0.025,-0.038,109.0,110.0,106.0,13.3,1505.3,327.2,-0.7,1.8,2470.435,13.33,0.026,201.8
2021-02-11T00:25:03,42.805,6.029,-0.033,-0.022,-0.04,109.0,111.0,107.0,13.3,1505.3,326.9,-0.7,1.8,2470.422,13.33,0.039,236.3
2021-02-11T00:28:03,42.805,6.029,-0.018,0.007,0.028,110.0,110.0,106.0,13.4,1505.3,326.0,-0.7,1.8,2470.428,13.33,0.019,291.2
2021-02-11T00:31:03,42.805,6.029,-0.021,-0.039,-0.024,111.0,110.0,106.0,13.4,1505.3,326.9,-0.7,1.9,2470.409,13.33,0.044,208.3
2021-02-11T00:34:03,42.805,6.029,-0.005,-0.021,-0.005,110.0,110.0,106.0,13.3,1505.3,323.0,-0.7,1.9,2470.407,13.33,0.021,193.4
2021-02-11T00:37:03,42.805,6.029,-0.005,-0.029,-0.004,111.0,111.0,106.0,13.3,1505.3,327.7,-0.7,1.8,2470.382,13.33,0.029,189.8
2021-02-11T00:40:03,42.805,6.029,0.0,-0.025,-0.017,111.0,111.0,106.0,13.4,1505.3,325.9,-0.7,1.9,2470.408,13.33,0.025,180.0
2021-02-11T00:43:03,42.805,6.029,-0.049,-0.013,-0.031,110.0,113.0,106.0,13.4,1505.3,322.9,-0.7,1.8,2470.382,13.33,0.05,255.1
2021-02-11T00:46:03,42.805,6.029,-0.031,-0.013,0.007,110.0,111.0,106.0,13.4,1505.3,325.7,-0.7,1.8,2470.41,13.33,0.033,247.3
2021-02-11T00:49:03,42.805,6.029,-0.018,-0.012,-0.002,109.0,112.0,105.0,13.3,1505.3,325.2,-0.7,1.8,2470.43,13.33,0.021,236.3
2021-02-11T00:52:03,42.805,6.029,-0.019,-0.018,-0.014,110.0,111.0,105.0,13.4,1505.3,326.1,-0.7,1.8,2470.416,13.33,0.026,226.5
2021-02-11T00:55:03,42.805,6.029,-0.046,-0.052,-0.073,110.0,111.0,106.0,13.4,1505.3,323.6,-0.7,1.8,2470.395,13.33,0.069,221.5
2021-02-11T00:58:03,42.805,6.029,-0.019,-0.016,-0.025,111.0,112.0,106.0,13.3,1505.3,327.8,-0.7,1.9,2470.404,13.33,0.024,229.9
2021-02-11T01:04:03,42.805,6.029,-0.011,-0.019,0.0,111.0,110.0,105.0,13.4,1505.3,324.5,-0.7,1.8,2470.426,13.31,0.021,210.1
2021-02-11T01:07:03,42.805,6.029,-0.014,-0.014,-0.013,110.0,110.0,107.0,13.3,1505.3,324.3,-0.7,1.8,2470.457,13.32,0.019,225.0
2021-02-11T01:10:03,42.805,6.029,-0.027,-0.009,-0.014,111.0,112.0,107.0,13.4,1505.3,325.2,-0.8,1.8,2470.442,13.32,0.028,251.6
2021-02-11T01:13:03,42.805,6.029,-0.027,-0.01,0.008,110.0,110.0,106.0,13.4,1505.3,326.5,-0.7,1.8,2470.419,13.32,0.028,249.7
2021-02-11T01:16:03,42.805,6.029,0.001,-0.019,0.025,110.0,110.0,107.0,13.3,1505.3,326.7,-0.7,1.8,2470.414,13.33,0.019,177.0
2021-02-11T01:19:03,42.805,6.029,-0.012,-0.03,-0.024,111.0,111.0,106.0,13.4,1505.3,323.8,-0.7,1.8,2470.371,13.33,0.032,201.8
2021-02-11T01:22:03,42.805,6.029,0.014,-0.012,0.02,110.0,111.0,107.0,13.4,1505.3,326.4,-0.7,1.8,2470.379,13.33,0.018,130.6
2021-02-11T01:25:03,42.805,6.029,-0.007,-0.026,-0.027,110.0,110.0,106.0,13.4,1505.3,327.5,-0.7,1.8,2470.39,13.33,0.026,195.1
2021-02-11T01:28:03,42.805,6.029,-0.01,-0.027,0.021,110.0,112.0,107.0,13.4,1505.3,322.8,-0.7,1.8,2470.394,13.33,0.028,200.3
2021-02-11T01:31:03,42.805,6.029,-0.024,-0.017,0.012,111.0,110.0,107.0,13.3,1505.3,326.9,-0.7,1.8,2470.426,13.33,0.029,234.7
2021-02-11T01:34:03,42.805,6.029,-0.022,-0.021,0.016,111.0,111.0,106.0,13.4,1505.3,324.7,-0.7,1.9,2470.434,13.33,0.03,226.3
2021-02-11T01:37:03,42.805,6.029,-0.01,-0.012,-0.003,110.0,110.0,106.0,13.4,1505.3,327.2,-0.7,1.8,2470.352,13.33,0.015,219.8
2021-02-11T01:40:03,42.805,6.029,0.008,-0.014,0.006,110.0,111.0,107.0,13.3,1505.3,326.6,-0.7,1.8,2470.421,13.33,0.016,150.3
2021-02-11T01:43:03,42.805,6.029,0.0,-0.01,0.025,111.0,111.0,106.0,13.3,1505.3,326.5,-0.7,1.8,2470.411,13.33,0.01,180.0
2021-02-11T01:46:03,42.805,6.029,-0.008,-0.021,-0.005,111.0,110.0,107.0,13.4,1505.3,324.6,-0.8,1.8,2470.434,13.33,0.022,200.9
2021-02-11T01:49:03,42.805,6.029,-0.028,-0.007,0.003,111.0,112.0,106.0,13.4,1505.3,325.7,-0.7,1.8,2470.384,13.33,0.028,256.0
2021-02-11T01:52:03,42.805,6.029,-0.015,-0.027,-0.001,111.0,111.0,107.0,13.4,1505.3,327.4,-0.7,1.8,2470.38,13.33,0.03,209.1
2021-02-11T01:55:03,42.805,6.029,0.005,-0.011,-0.034,111.0,110.0,107.0,13.4,1505.3,326.5,-0.7,1.8,2470.397,13.33,0.012,155.6
2021-02-11T01:58:03,42.805,6.029,-0.032,-0.03,0.006,111.0,111.0,108.0,13.3,1505.3,326.3,-0.7,1.9,2470.41,13.33,0.043,226.9
2021-02-11T02:04:03,42.805,6.029,-0.025,-0.007,-0.028,111.0,111.0,106.0,13.4,1505.3,326.1,-0.7,1.8,2470.42,13.31,0.025,254.4
2021-02-11T02:07:03,42.805,6.029,-0.03,-0.023,-0.029,109.0,112.0,107.0,13.4,1505.3,326.4,-0.7,1.9,2470.408,13.32,0.037,232.5
2021-02-11T02:10:03,42.805,6.029,0.005,-0.007,-0.002,110.0,110.0,106.0,13.3,1505.3,324.7,-0.7,1.8,2470.416,13.32,0.008,144.5
2021-02-11T02:13:03,42.805,6.029,-0.014,-0.004,0.025,109.0,110.0,106.0,13.4,1505.3,326.0,-0.7,1.8,2470.423,13.32,0.014,254.1
2021-02-11T02:16:03,42.805,6.029,-0.021,-0.022,0.012,111.0,111.0,106.0,13.4,1505.3,325.4,-0.7,1.8,2470.411,13.32,0.03,223.7
2021-02-11T02:19:03,42.805,6.029,-0.03,-0.017,-0.018,109.0,110.0,106.0,13.3,1505.3,322.8,-0.7,1.8,2470.432,13.33,0.034,240.5
2021-02-11T02:22:03,42.805,6.029,-0.018,-0.033,-0.017,111.0,113.0,107.0,13.4,1505.3,324.6,-0.7,1.8,2470.43,13.33,0.037,208.6
2021-02-11T02:25:03,42.805,6.029,-0.03,-0.008,-0.014,111.0,111.0,106.0,13.3,1505.3,327.6,-0.7,1.8,2470.421,13.33,0.031,255.1
2021-02-11T02:28:03,42.805,6.029,-0.031,0.004,-0.018,110.0,112.0,107.0,13.4,1505.3,322.8,-0.7,1.8,2470.385,13.33,0.031,277.3
2021-02-11T02:31:03,42.805,6.029,-0.028,-0.017,-0.025,111.0,110.0,106.0,13.4,1505.3,326.5,-0.7,1.8,2470.406,13.33,0.032,238.7
2021-02-11T02:34:03,42.805,6.029,-0.01,-0.004,0.005,110.0,112.0,106.0,13.4,1505.3,326.2,-0.7,1.8,2470.453,13.33,0.01,248.2
2021-02-11T02:37:03,42.805,6.029,-0.022,-0.024,0.016,109.0,109.0,107.0,13.4,1505.3,325.7,-0.7,1.8,2470.441,13.33,0.032,222.5
2021-02-11T02:40:03,42.805,6.029,-0.027,-0.032,0.014,110.0,112.0,106.0,13.3,1505.3,326.1,-0.7,1.8,2470.437,13.33,0.041,220.2
2021-02-11T02:43:03,42.805,6.029,0.001,-0.005,0.028,110.0,109.0,107.0,13.4,1505.3,327.6,-0.7,1.8,2470.415,13.33,0.005,168.7
2021-02-11T02:46:03,42.805,6.029,-0.034,-0.01,0.011,110.0,111.0,106.0,13.3,1505.3,324.2,-0.7,1.8,2470.437,13.33,0.035,253.6
2021-02-11T02:49:03,42.805,6.029,-0.011,-0.03,0.005,111.0,110.0,106.0,13.4,1505.3,325.8,-0.7,1.8,2470.454,13.33,0.031,200.1
2021-02-11T02:52:03,42.805,6.029,-0.013,-0.012,0.02,110.0,110.0,107.0,13.4,1505.3,326.3,-0.7,1.8,2470.452,13.33,0.017,227.3
2021-02-11T02:55:03,42.805,6.029,-0.031,-0.013,-0.029,111.0,110.0,107.0,13.3,1505.3,325.1,-0.7,1.8,2470.426,13.33,0.033,247.3
2021-02-11T02:58:03,42.805,6.029,-0.003,-0.028,0.0,110.0,110.0,106.0,13.4,1505.3,326.1,-0.7,1.8,2470.394,13.33,0.028,186.1
2021-02-11T03:04:03,42.805,6.029,-0.002,-0.032,-0.008,111.0,110.0,105.0,13.4,1505.3,325.2,-0.7,1.8,2470.47,13.31,0.032,183.6
2021-02-11T03:07:03,42.805,6.029,-0.004,-0.023,0.019,111.0,110.0,105.0,13.4,1505.3,327.5,-0.7,1.8,2470.441,13.31,0.023,189.9
2021-02-11T03:10:03,42.805,6.029,-0.025,-0.029,-0.007,109.0,110.0,106.0,13.3,1505.3,327.1,-0.7,1.8,2470.518,13.32,0.038,220.8
2021-02-11T03:13:03,42.805,6.029,-0.029,0.017,0.0,110.0,110.0,106.0,13.3,1505.3,327.5,-0.7,1.8,2470.502,13.32,0.033,300.4
2021-02-11T03:16:03,42.805,6.029,-0.031,0.0,0.0,110.0,111.0,106.0,13.4,1505.3,326.1,-0.7,1.8,2470.432,13.32,0.03,270.0
2021-02-11T03:19:03,42.805,6.029,-0.023,-0.025,-0.014,111.0,110.0,106.0,13.4,1505.3,325.3,-0.7,1.8,2470.48,13.32,0.033,222.6
2021-02-11T03:22:03,42.805,6.029,-0.026,-0.022,-0.033,110.0,111.0,105.0,13.4,1505.3,326.5,-0.7,1.8,2470.463,13.33,0.034,229.8
2021-02-11T03:25:03,42.805,6.029,-0.019,-0.019,-0.024,111.0,112.0,106.0,13.4,1505.3,324.0,-0.7,1.8,2470.447,13.33,0.026,225.0
2021-02-11T03:28:03,42.805,6.029,-0.039,-0.005,0.0,111.0,111.0,106.0,13.4,1505.3,326.9,-0.7,1.9,2470.47,13.33,0.039,262.7
2021-02-11T03:31:03,42.805,6.029,-0.028,0.0,0.019,111.0,110.0,107.0,13.4,1505.3,325.6,-0.7,1.8,2470.452,13.33,0.028,270.0
2021-02-11T03:34:03,42.805,6.029,-0.007,-0.011,-0.002,110.0,110.0,106.0,13.4,1505.3,326.1,-0.7,1.8,2470.468,13.33,0.013,212.5
2021-02-11T03:37:03,42.805,6.029,-0.045,-0.022,-0.013,110.0,110.0,107.0,13.4,1505.3,325.9,-0.7,1.8,2470.494,13.33,0.05,243.9
2021-02-11T03:40:03,42.805,6.029,-0.032,-0.007,-0.024,111.0,109.0,106.0,13.4,1505.3,324.5,-0.7,1.8,2470.47,13.33,0.032,257.7
2021-02-11T03:43:03,42.805,6.029,-0.027,-0.019,-0.01,110.0,110.0,106.0,13.3,1505.3,328.0,-0.7,1.8,2470.503,13.33,0.033,234.9
2021-02-11T03:46:03,42.805,6.029,-0.022,-0.011,-0.016,110.0,112.0,106.0,13.3,1505.3,323.7,-0.7,1.8,2470.479,13.33,0.024,243.4
2021-02-11T03:49:03,42.805,6.029,-0.009,-0.021,-0.027,110.0,111.0,105.0,13.4,1505.3,324.3,-0.7,1.8,2470.53,13.33,0.022,203.2
2021-02-11T03:52:03,42.805,6.029,-0.022,-0.007,-0.014,111.0,110.0,106.0,13.4,1505.3,326.9,-0.7,1.8,2470.509,13.33,0.023,252.4
2021-02-11T03:55:03,42.805,6.029,0.003,0.0,0.044,109.0,110.0,105.0,13.4,1505.3,326.4,-0.7,1.8,2470.513,13.33,0.003,90.0
2021-02-11T03:58:03,42.805,6.029,-0.051,-0.023,-0.035,110.0,112.0,106.0,13.3,1505.3,324.6,-0.7,1.8,2470.533,13.33,0.055,245.7
2021-02-11T04:04:03,42.805,6.029,-0.014,-0.008,-0.001,110.0,112.0,106.0,13.4,1505.3,323.9,-0.7,1.8,2470.59,13.31,0.016,240.3
2021-02-11T04:07:03,42.805,6.029,-0.031,-0.026,-0.006,111.0,111.0,106.0,13.3,1505.3,325.6,-0.7,1.8,2470.557,13.31,0.04,230.0
2021-02-11T04:10:03,42.805,6.029,-0.027,-0.027,-0.023,111.0,111.0,106.0,13.4,1505.3,326.7,-0.7,1.8,2470.575,13.32,0.038,225.0
2021-02-11T04:13:03,42.805,6.029,-0.021,-0.013,-0.007,112.0,112.0,108.0,13.3,1505.3,324.5,-0.7,1.8,2470.55,13.32,0.024,238.2
2021-02-11T04:16:03,42.805,6.029,-0.015,-0.016,-0.013,112.0,112.0,106.0,13.4,1505.3,328.0,-0.7,1.8,2470.549,13.32,0.021,223.1
2021-02-11T04:19:03,42.805,6.029,-0.032,-0.014,-0.034,111.0,111.0,107.0,13.4,1505.3,325.5,-0.7,1.8,2470.555,13.32,0.034,246.4
2021-02-11T04:22:03,42.805,6.029,-0.014,-0.02,-0.01,111.0,111.0,107.0,13.3,1505.3,325.3,-0.7,1.8,2470.582,13.33,0.024,215.0
2021-02-11T04:25:03,42.805,6.029,-0.046,-0.032,0.009,110.0,111.0,107.0,13.4,1505.3,322.7,-0.7,1.8,2470.554,13.33,0.056,235.2
2021-02-11T04:28:03,42.805,6.029,-0.035,-0.012,0.02,110.0,110.0,107.0,13.3,1505.3,326.3,-0.7,1.8,2470.559,13.33,0.037,251.1
2021-02-11T04:31:03,42.805,6.029,-0.014,-0.012,0.035,110.0,111.0,106.0,13.3,1505.3,325.5,-0.7,1.8,2470.581,13.33,0.018,229.4
2021-02-11T04:34:03,42.805,6.029,-0.038,-0.011,-0.039,110.0,111.0,107.0,13.3,1505.3,325.4,-0.7,1.8,2470.536,13.33,0.039,253.9
2021-02-11T04:37:03,42.805,6.029,-0.035,-0.015,0.024,112.0,110.0,106.0,13.3,1505.3,326.4,-0.7,1.8,2470.585,13.33,0.038,246.8
2021-02-11T04:40:03,42.805,6.029,-0.03,-0.008,-0.002,112.0,111.0,106.0,13.4,1505.3,326.7,-0.7,1.8,2470.589,13.33,0.031,255.1
2021-02-11T04:43:03,42.805,6.029,-0.017,-0.02,0.0,110.0,110.0,105.0,13.4,1505.3,324.7,-0.7,1.8,2470.56,13.33,0.026,220.4
2021-02-11T04:46:03,42.805,6.029,-0.027,-0.025,0.004,110.0,111.0,106.0,13.4,1505.3,325.7,-0.7,1.8,2470.564,13.33,0.036,227.2
2021-02-11T04:49:03,42.805,6.029,-0.023,-0.015,-0.026,110.0,110.0,107.0,13.3,1505.3,325.5,-0.7,1.8,2470.547,13.33,0.027,236.9
2021-02-11T04:52:03,42.805,6.029,0.005,-0.03,0.0,111.0,113.0,105.0,13.4,1505.3,323.8,-0.7,1.9,2470.59,13.33,0.03,170.5
2021-02-11T04:55:03,42.805,6.029,-0.017,-0.005,-0.003,111.0,111.0,106.0,13.4,1505.3,324.0,-0.7,1.8,2470.537,13.33,0.017,253.6
2021-02-11T04:58:03,42.805,6.029,-0.008,-0.022,0.004,112.0,112.0,106.0,13.4,1505.3,325.3,-0.7,1.8,2470.603,13.33,0.023,200.0
2021-02-11T05:04:03,42.805,6.029,-0.043,-0.024,-0.029,111.0,110.0,107.0,13.4,1505.3,325.6,-0.7,1.8,2470.589,13.31,0.049,240.8
2021-02-11T05:07:03,42.805,6.029,-0.046,-0.006,-0.031,111.0,112.0,106.0,13.4,1505.3,324.5,-0.7,1.8,2470.617,13.31,0.046,262.6
2021-02-11T05:10:03,42.805,6.029,-0.02,-0.003,0.007,111.0,112.0,107.0,13.4,1505.3,327.7,-0.7,1.8,2470.644,13.32,0.02,261.5
2021-02-11T05:13:03,42.805,6.029,-0.047,-0.019,0.002,111.0,112.0,106.0,13.4,1505.3,327.6,-0.7,1.8,2470.615,13.32,0.05,248.0
2021-02-11T05:16:03,42.805,6.029,-0.02,-0.004,0.024,111.0,112.0,108.0,13.4,1505.3,323.3,-0.7,1.8,2470.61,13.32,0.02,258.7
2021-02-11T05:19:03,42.805,6.029,-0.037,-0.036,-0.04,111.0,112.0,107.0,13.3,1505.3,323.0,-0.7,1.8,2470.591,13.32,0.051,225.8
2021-02-11T05:22:03,42.805,6.029,-0.033,-0.023,-0.006,111.0,111.0,107.0,13.4,1505.3,324.6,-0.8,1.8,2470.589,13.33,0.04,235.1
2021-02-11T05:25:03,42.805,6.029,-0.032,-0.028,0.023,111.0,110.0,107.0,13.4,1505.3,326.3,-0.7,1.8,2470.588,13.33,0.042,228.8
2021-02-11T05:28:03,42.805,6.029,-0.024,-0.023,0.01,110.0,112.0,107.0,13.4,1505.3,326.4,-0.7,1.8,2470.589,13.33,0.033,226.2
2021-02-11T05:31:03,42.805,6.029,-0.028,-0.03,0.005,110.0,113.0,106.0,13.4,1505.3,327.2,-0.7,1.8,2470.618,13.33,0.041,223.0
2021-02-11T05:34:03,42.805,6.029,-0.013,-0.018,-0.028,111.0,111.0,107.0,13.3,1505.3,326.3,-0.7,1.9,2470.594,13.33,0.022,215.8
2021-02-11T05:37:03,42.805,6.029,-0.042,-0.019,0.018,111.0,111.0,106.0,13.4,1505.3,326.0,-0.7,1.8,2470.654,13.33,0.046,245.7
2021-02-11T05:40:03,42.805,6.029,-0.023,-0.003,-0.002,112.0,111.0,107.0,13.4,1505.3,325.9,-0.7,1.8,2470.613,13.33,0.023,262.6
2021-02-11T05:43:03,42.805,6.029,-0.04,-0.015,-0.014,112.0,111.0,106.0,13.3,1505.3,326.7,-0.8,1.8,2470.591,13.33,0.042,249.4
2021-02-11T05:46:03,42.805,6.029,-0.01,-0.011,-0.008,111.0,110.0,106.0,13.4,1505.3,323.3,-0.7,1.9,2470.614,13.33,0.014,222.3
2021-02-11T05:49:03,42.805,6.029,-0.032,0.005,0.007,109.0,111.0,107.0,13.3,1505.3,325.9,-0.7,1.8,2470.623,13.33,0.032,278.9
2021-02-11T05:52:03,42.805,6.029,-0.022,-0.015,-0.013,112.0,111.0,106.0,13.4,1505.3,327.6,-0.7,1.8,2470.62,13.33,0.026,235.7
2021-02-11T05:55:03,42.805,6.029,-0.04,-0.012,-0.06,111.0,112.0,107.0,13.4,1505.3,323.2,-0.7,1.9,2470.622,13.33,0.041,253.3
2021-02-11T05:58:03,42.805,6.029,-0.02,-0.003,-0.019,111.0,112.0,107.0,13.3,1505.3,326.1,-0.8,1.8,2470.66,13.33,0.02,261.5
2021-02-11T06:04:03,42.805,6.029,-0.02,-0.001,0.0,112.0,112.0,107.0,13.4,1505.3,327.8,-0.7,1.8,2470.679,13.31,0.02,267.1
2021-02-11T06:07:03,42.805,6.029,-0.071,-0.012,-0.019,111.0,113.0,107.0,13.4,1505.3,323.0,-0.7,1.8,2470.641,13.32,0.072,260.4
2021-02-11T06:10:03,42.805,6.029,-0.004,0.001,0.022,111.0,111.0,107.0,13.3,1505.3,324.5,-0.7,1.8,2470.656,13.32,0.004,284.0
2021-02-11T06:13:03,42.805,6.029,-0.033,-0.014,-0.03,111.0,111.0,107.0,13.4,1505.3,325.7,-0.7,1.8,2470.661,13.33,0.035,247.0
2021-02-11T06:16:03,42.805,6.029,-0.005,-0.006,0.012,112.0,111.0,107.0,13.4,1505.3,325.7,-0.7,1.9,2470.68,13.33,0.007,219.8
2021-02-11T06:19:03,42.805,6.029,0.004,0.001,-0.026,112.0,111.0,106.0,13.4,1505.3,325.9,-0.7,1.8,2470.635,13.33,0.004,76.0
2021-02-11T06:22:03,42.805,6.029,-0.015,-0.004,-0.03,111.0,111.0,107.0,13.4,1505.3,325.0,-0.7,1.9,2470.661,13.33,0.015,255.1
2021-02-11T06:25:03,42.805,6.029,-0.019,-0.002,-0.021,112.0,112.0,107.0,13.4,1505.3,328.3,-0.7,1.8,2470.677,13.33,0.019,264.0
2021-02-11T06:28:03,42.805,6.029,-0.02,-0.011,0.005,112.0,111.0,106.0,13.4,1505.3,322.9,-0.7,1.8,2470.671,13.33,0.022,241.2
2021-02-11T06:31:03,42.805,6.029,-0.021,-0.011,0.012,111.0,112.0,106.0,13.4,1505.3,327.1,-0.7,1.8,2470.618,13.33,0.023,242.4
2021-02-11T06:34:03,42.805,6.029,-0.037,-0.002,0.031,113.0,111.0,106.0,13.4,1505.3,324.5,-0.7,1.8,2470.649,13.33,0.037,266.9
2021-02-11T06:37:03,42.805,6.029,-0.029,-0.016,-0.005,110.0,111.0,108.0,13.3,1505.3,325.4,-0.7,1.8,2470.644,13.33,0.033,241.1
2021-02-11T06:40:03,42.805,6.029,0.0,-0.017,-0.032,111.0,112.0,106.0,13.3,1505.3,328.2,-0.7,1.8,2470.621,13.33,0.017,180.0
2021-02-11T06:43:03,42.805,6.029,-0.017,-0.019,-0.01,112.0,111.0,106.0,13.4,1505.3,327.9,-0.7,1.8,2470.63,13.33,0.025,221.8
2021-02-11T06:46:03,42.805,6.029,-0.027,-0.01,-0.022,111.0,113.0,106.0,13.4,1505.3,327.7,-0.7,1.8,2470.591,13.33,0.028,249.7
2021-02-11T06:52:03,42.805,6.029,-0.011,-0.007,0.026,111.0,111.0,107.0,13.4,1505.3,328.2,-0.8,1.8,2470.711,13.31,0.013,237.5
2021-02-11T06:55:03,42.805,6.029,-0.031,-0.023,-0.013,112.0,111.0,106.0,13.4,1505.3,328.4,-0.7,1.8,2470.698,13.32,0.038,233.4
2021-02-11T06:58:03,42.805,6.029,-0.027,-0.003,0.005,111.0,112.0,106.0,13.4,1505.3,324.8,-0.7,1.8,2470.655,13.32,0.027,263.7
2021-02-11T07:04:03,42.805,6.029,-0.009,-0.021,-0.017,112.0,111.0,107.0,13.4,1505.3,326.6,-0.7,1.8,2470.69,13.31,0.022,203.2
2021-02-11T07:07:03,42.805,6.029,-0.029,-0.033,-0.005,111.0,111.0,108.0,13.3,1505.3,326.1,-0.7,1.8,2470.704,13.32,0.043,221.3
2021-02-11T07:10:03,42.805,6.029,0.0,0.007,0.003,112.0,112.0,108.0,13.4,1505.3,323.6,-0.7,1.8,2470.657,13.32,0.007,0.0
2021-02-11T07:13:03,42.805,6.029,-0.044,-0.006,0.005,112.0,111.0,106.0,13.3,1505.3,327.0,-0.7,1.8,2470.676,13.33,0.044,262.2
2021-02-11T07:16:03,42.805,6.029,-0.019,-0.035,-0.003,111.0,110.0,106.0,13.4,1505.3,327.2,-0.7,1.8,2470.666,13.33,0.039,208.5
2021-02-11T07:19:03,42.805,6.029,-0.003,-0.018,-0.004,111.0,112.0,106.0,13.4,1505.3,324.9,-0.7,1.8,2470.666,13.33,0.018,189.5
2021-02-11T07:22:03,42.805,6.029,-0.036,-0.012,-0.027,111.0,110.0,107.0,13.4,1505.3,325.4,-0.7,1.8,2470.721,13.33,0.037,251.6
2021-02-11T07:25:03,42.805,6.029,-0.026,-0.005,-0.038,111.0,112.0,107.0,13.4,1505.3,323.5,-0.7,1.8,2470.641,13.33,0.026,259.1
2021-02-11T07:28:03,42.805,6.029,-0.031,-0.006,-0.03,110.0,110.0,108.0,13.4,1505.3,327.3,-0.7,1.8,2470.644,13.33,0.031,259.0
2021-02-11T07:31:03,42.805,6.029,-0.031,-0.006,-0.016,111.0,111.0,107.0,13.4,1505.3,327.1,-0.7,1.8,2470.652,13.33,0.031,259.0
2021-02-11T07:34:03,42.805,6.029,-0.014,-0.016,0.01,109.0,111.0,107.0,13.3,1505.3,325.5,-0.7,1.9,2470.68,13.33,0.021,221.2
2021-02-11T07:37:03,42.805,6.029,-0.017,0.01,-0.019,110.0,111.0,106.0,13.4,1505.3,324.2,-0.7,1.8,2470.693,13.33,0.019,300.5
2021-02-11T07:40:03,42.805,6.029,-0.013,0.014,-0.017,111.0,112.0,107.0,13.4,1505.4,324.6,-0.7,1.8,2470.613,13.34,0.019,317.1
2021-02-11T07:43:03,42.805,6.029,-0.032,0.017,-0.008,112.0,110.0,106.0,13.4,1505.3,326.4,-0.7,1.8,2470.682,13.33,0.036,298.0
2021-02-11T07:46:03,42.805,6.029,0.009,-0.018,0.012,111.0,111.0,106.0,13.4,1505.4,325.2,-0.7,1.9,2470.622,13.34,0.02,153.4
2021-02-11T07:49:03,42.805,6.029,-0.014,-0.015,-0.023,109.0,110.0,107.0,13.4,1505.4,326.2,-0.7,1.8,2470.648,13.34,0.02,223.0
2021-02-11T07:52:03,42.805,6.029,-0.018,0.005,-0.006,111.0,112.0,106.0,13.4,1505.4,324.4,-0.7,1.8,2470.645,13.34,0.018,285.5
2021-02-11T07:55:03,42.805,6.029,-0.02,0.004,-0.037,110.0,113.0,106.0,13.3,1505.4,324.5,-0.7,1.8,2470.627,13.34,0.02,281.3
2021-02-11T07:58:03,42.805,6.029,-0.033,0.006,-0.023,111.0,113.0,106.0,13.4,1505.4,326.0,-0.7,1.8,2470.625,13.34,0.033,280.3
2021-02-11T08:04:03,42.805,6.029,-0.008,-0.005,0.02,113.0,111.0,105.0,13.4,1505.3,326.3,-0.7,1.8,2470.675,13.32,0.009,238.0
2021-02-11T08:07:03,42.805,6.029,-0.005,-0.011,-0.008,111.0,111.0,107.0,13.4,1505.3,325.2,-0.7,1.8,2470.658,13.33,0.012,204.4
2021-02-11T08:10:03,42.805,6.029,-0.031,0.008,-0.033,111.0,112.0,108.0,13.4,1505.3,324.1,-0.7,1.9,2470.663,13.33,0.032,284.5
2021-02-11T08:13:03,42.805,6.029,-0.025,-0.018,-0.016,112.0,113.0,106.0,13.4,1505.3,324.7,-0.7,1.8,2470.664,13.33,0.03,234.2
2021-02-11T08:16:03,42.805,6.029,-0.039,-0.027,-0.028,111.0,111.0,106.0,13.4,1505.3,325.3,-0.7,1.8,2470.686,13.33,0.047,235.3
2021-02-11T08:19:03,42.805,6.029,-0.028,0.002,-0.027,112.0,112.0,106.0,13.3,1505.3,326.2,-0.7,1.8,2470.645,13.33,0.028,274.1
2021-02-11T08:22:03,42.805,6.029,-0.008,0.02,-0.041,112.0,112.0,106.0,13.4,1505.3,326.8,-0.7,1.8,2470.633,13.33,0.021,338.2
2021-02-11T08:25:03,42.805,6.029,-0.047,-0.001,-0.048,110.0,112.0,107.0,13.4,1505.3,325.8,-0.7,1.8,2470.625,13.33,0.047,268.8
2021-02-11T08:28:03,42.805,6.029,-0.033,0.0,-0.02,111.0,111.0,106.0,13.4,1505.3,325.2,-0.7,1.8,2470.655,13.33,0.033,270.0
2021-02-11T08:31:03,42.805,6.029,-0.03,-0.011,-0.041,111.0,111.0,107.0,13.4,1505.3,323.3,-0.7,1.9,2470.636,13.33,0.031,249.9
2021-02-11T08:34:03,42.805,6.029,-0.029,-0.001,-0.044,111.0,112.0,107.0,13.4,1505.3,324.8,-0.7,1.8,2470.606,13.33,0.029,268.0
2021-02-11T08:37:03,42.805,6.029,-0.035,-0.008,-0.01,111.0,111.0,107.0,13.4,1505.3,326.5,-0.7,1.8,2470.686,13.33,0.035,257.1
2021-02-11T08:40:03,42.805,6.029,0.003,-0.002,-0.02,111.0,111.0,106.0,13.4,1505.3,324.7,-0.7,1.8,2470.634,13.33,0.003,123.7
2021-02-11T08:43:03,42.805,6.029,-0.024,-0.013,-0.012,111.0,110.0,106.0,13.3,1505.3,327.4,-0.7,1.8,2470.634,13.33,0.027,241.6
2021-02-11T08:46:03,42.805,6.029,-0.011,-0.019,0.032,111.0,113.0,107.0,13.3,1505.3,326.1,-0.7,1.8,2470.666,13.33,0.021,210.1
2021-02-11T08:49:03,42.805,6.029,-0.048,0.006,0.007,112.0,111.0,107.0,13.3,1505.3,324.4,-0.7,1.8,2470.649,13.33,0.048,277.1
2021-02-11T08:52:03,42.805,6.029,-0.033,-0.012,0.011,111.0,111.0,106.0,13.4,1505.3,323.4,-0.7,1.8,2470.647,13.33,0.035,250.0
2021-02-11T08:55:03,42.805,6.029,-0.017,-0.002,-0.011,111.0,111.0,108.0,13.3,1505.3,322.8,-0.7,1.8,2470.628,13.33,0.017,263.3
2021-02-11T08:58:03,42.805,6.029,0.001,-0.004,-0.015,112.0,111.0,107.0,13.4,1505.3,327.5,-0.7,1.8,2470.624,13.33,0.004,166.0
2021-02-11T09:04:03,42.805,6.029,-0.047,-0.006,-0.014,111.0,111.0,107.0,13.3,1505.3,327.9,-0.7,1.8,2470.637,13.31,0.047,262.7
2021-02-11T09:07:03,42.805,6.029,-0.041,-0.007,0.009,110.0,112.0,107.0,13.4,1505.3,327.7,-0.7,1.8,2470.633,13.32,0.041,260.3
2021-02-11T09:10:03,42.805,6.029,-0.031,-0.012,-0.029,111.0,113.0,107.0,13.4,1505.3,327.5,-0.8,1.8,2470.617,13.32,0.033,248.8
2021-02-11T09:13:03,42.805,6.029,-0.043,-0.017,-0.014,112.0,111.0,108.0,13.4,1505.3,327.4,-0.7,1.9,2470.697,13.33,0.046,248.4
2021-02-11T09:16:03,42.805,6.029,-0.046,-0.016,-0.016,111.0,110.0,108.0,13.4,1505.3,324.2,-0.7,1.9,2470.583,13.33,0.048,250.8
2021-02-11T09:19:03,42.805,6.029,-0.046,-0.029,-0.017,111.0,111.0,106.0,13.4,1505.3,326.4,-0.7,1.8,2470.624,13.33,0.054,237.8
2021-02-11T09:22:03,42.805,6.029,0.012,-0.018,0.033,111.0,110.0,106.0,13.4,1505.3,323.0,-0.7,1.8,2470.603,13.33,0.021,146.3
2021-02-11T09:25:03,42.805,6.029,-0.016,-0.01,-0.003,111.0,111.0,107.0,13.3,1505.3,326.1,-0.7,1.8,2470.634,13.33,0.018,238.0
2021-02-11T09:28:03,42.805,6.029,-0.019,-0.021,-0.01,110.0,113.0,106.0,13.4,1505.3,325.5,-0.7,1.8,2470.59,13.33,0.028,222.1
2021-02-11T09:31:03,42.805,6.029,-0.031,-0.011,-0.025,110.0,112.0,107.0,13.4,1505.3,326.9,-0.7,1.8,2470.562,13.33,0.032,250.5
2021-02-11T09:34:03,42.805,6.029,-0.04,-0.01,-0.052,112.0,110.0,107.0,13.4,1505.3,326.1,-0.7,1.8,2470.621,13.33,0.041,256.0
2021-02-11T09:37:03,42.805,6.029,-0.043,-0.007,-0.03,111.0,111.0,106.0,13.4,1505.3,327.7,-0.7,1.8,2470.593,13.33,0.043,260.8
2021-02-11T09:40:03,42.805,6.029,-0.015,-0.018,-0.034,111.0,112.0,107.0,13.3,1505.3,326.7,-0.7,1.8,2470.598,13.33,0.023,219.8
2021-02-11T09:43:03,42.805,6.029,-0.019,0.009,-0.025,111.0,111.0,107.0,13.3,1505.3,327.7,-0.7,1.9,2470.585,13.33,0.021,295.3
2021-02-11T09:46:03,42.805,6.029,-0.022,-0.014,0.0,111.0,112.0,108.0,13.4,1505.3,327.3,-0.8,1.8,2470.599,13.33,0.026,237.5
2021-02-11T09:49:03,42.805,6.029,-0.008,-0.026,-0.042,110.0,113.0,107.0,13.4,1505.3,325.7,-0.7,1.8,2470.61,13.33,0.027,197.1
2021-02-11T09:52:03,42.805,6.029,-0.008,-0.04,-0.034,111.0,111.0,107.0,13.3,1505.3,324.9,-0.7,1.9,2470.577,13.33,0.04,191.3
2021-02-11T09:55:03,42.805,6.029,0.013,-0.011,0.008,112.0,111.0,107.0,13.4,1505.3,324.0,-0.7,1.8,2470.576,13.33,0.017,130.2